Time,TemperatureF,DewpointF,PressureIn,WindDirection,WindDirectionDegrees,WindSpeedMPH,WindSpeedGustMPH,Humidity,HourlyPrecipIn,Conditions,Clouds,dailyrainin,SoftwareType,DateUTC
2013-02-02 00:03:00,18.0,4.0,-100.00,West,280,3.0,8.0,54,-99.99,,,-99.99,,2013-02-02 05:03:00,
2013-02-02 00:12:00,18.0,4.0,-100.00,West,280,3.0,8.0,54,-99.99,,,-99.99,,2013-02-02 05:12:00,
2013-02-02 00:33:00,18.0,4.0,-100.00,WNW,290,6.0,13.0,53,-99.99,,,-99.99,,2013-02-02 05:33:00,
2013-02-02 00:42:00,17.0,3.0,-100.00,WNW,300,2.0,6.0,53,-99.99,,,-99.99,,2013-02-02 05:42:00,
2013-02-02 00:52:00,17.0,3.0,-100.00,WNW,300,2.0,6.0,53,-99.99,,,-99.99,,2013-02-02 05:52:00,
2013-02-02 01:02:00,17.0,3.0,-100.00,West,270,2.0,11.0,53,-99.99,,,-99.99,,2013-02-02 06:02:00,
2013-02-02 01:12:00,17.0,3.0,-100.00,WNW,300,4.0,10.0,53,-99.99,,,-99.99,,2013-02-02 06:12:00,
2013-02-02 01:22:00,17.0,3.0,-100.00,WNW,300,4.0,10.0,53,-99.99,,,-99.99,,2013-02-02 06:22:00,
2013-02-02 01:32:00,17.0,3.0,-100.00,West,260,4.0,9.0,53,-99.99,,,-99.99,,2013-02-02 06:32:00,
2013-02-02 01:42:00,17.0,3.0,-100.00,NW,305,4.0,9.0,54,-99.99,,,-99.99,,2013-02-02 06:42:00,
2013-02-02 01:52:00,17.0,3.0,-100.00,NW,305,4.0,9.0,54,-99.99,,,-99.99,,2013-02-02 06:52:00,
2013-02-02 02:02:00,16.0,3.0,-100.00,WNW,285,4.0,11.0,54,-99.99,,,-99.99,,2013-02-02 07:02:00,
2013-02-02 02:12:00,16.0,3.0,-100.00,WNW,285,5.0,12.0,55,-99.99,,,-99.99,,2013-02-02 07:12:00,
2013-02-02 02:21:00,16.0,3.0,-100.00,WNW,285,5.0,12.0,55,-99.99,,,-99.99,,2013-02-02 07:21:00,
2013-02-02 02:32:00,16.0,2.0,-100.00,WNW,295,5.0,11.0,54,-99.99,,,-99.99,,2013-02-02 07:32:00,
2013-02-02 02:42:00,16.0,3.0,-100.00,WNW,295,5.0,11.0,55,-99.99,,,-99.99,,2013-02-02 07:42:00,
2013-02-02 02:51:00,16.0,3.0,-100.00,WNW,295,5.0,11.0,55,-99.99,,,-99.99,,2013-02-02 07:51:00,
2013-02-02 03:01:00,16.0,2.0,-100.00,WNW,295,5.0,13.0,55,-99.99,,,-99.99,,2013-02-02 08:01:00,
2013-02-02 03:11:00,15.0,2.0,-100.00,WNW,300,3.0,12.0,55,-99.99,,,-99.99,,2013-02-02 08:11:00,
2013-02-02 03:21:00,15.0,2.0,-100.00,WNW,300,3.0,12.0,55,-99.99,,,-99.99,,2013-02-02 08:21:00,
2013-02-02 03:32:00,15.0,2.0,-100.00,WNW,285,4.0,8.0,55,-99.99,,,-99.99,,2013-02-02 08:32:00,
2013-02-02 03:42:00,15.0,2.0,-100.00,WNW,300,4.0,9.0,55,-99.99,,,-99.99,,2013-02-02 08:42:00,
2013-02-02 03:52:00,15.0,2.0,-100.00,WNW,300,4.0,9.0,55,-99.99,,,-99.99,,2013-02-02 08:52:00,
2013-02-02 04:02:00,15.0,2.0,-100.00,WNW,300,6.0,12.0,55,-99.99,,,-99.99,,2013-02-02 09:02:00,
2013-02-02 04:11:00,15.0,2.0,-100.00,WNW,290,6.0,15.0,55,-99.99,,,-99.99,,2013-02-02 09:11:00,
2013-02-02 04:22:00,15.0,2.0,-100.00,WNW,290,6.0,15.0,55,-99.99,,,-99.99,,2013-02-02 09:22:00,
2013-02-02 04:32:00,14.0,1.0,-100.00,West,280,4.0,9.0,55,-99.99,,,-99.99,,2013-02-02 09:32:00,
2013-02-02 04:42:00,14.0,1.0,-100.00,WNW,300,4.0,13.0,55,-99.99,,,-99.99,,2013-02-02 09:42:00,
2013-02-02 04:52:00,14.0,1.0,-100.00,WNW,300,4.0,13.0,55,-99.99,,,-99.99,,2013-02-02 09:52:00,
2013-02-02 05:02:00,14.0,1.0,-100.00,NW,305,4.0,15.0,55,-99.99,,,-99.99,,2013-02-02 10:02:00,
2013-02-02 05:11:00,14.0,1.0,-100.00,NW,305,4.0,12.0,56,-99.99,,,-99.99,,2013-02-02 10:11:00,
2013-02-02 05:21:00,14.0,1.0,-100.00,NW,305,4.0,12.0,56,-99.99,,,-99.99,,2013-02-02 10:21:00,
2013-02-02 05:32:00,14.0,1.0,-100.00,WNW,300,4.0,15.0,56,-99.99,,,-99.99,,2013-02-02 10:32:00,
2013-02-02 05:42:00,14.0,1.0,-100.00,NW,310,3.0,14.0,56,-99.99,,,-99.99,,2013-02-02 10:42:00,
2013-02-02 05:52:00,14.0,1.0,-100.00,NW,310,3.0,14.0,56,-99.99,,,-99.99,,2013-02-02 10:52:00,
2013-02-02 06:02:00,14.0,1.0,-100.00,WNW,285,2.0,10.0,57,-99.99,,,-99.99,,2013-02-02 11:02:00,
2013-02-02 06:11:00,13.0,1.0,-100.00,West,280,2.0,9.0,57,-99.99,,,-99.99,,2013-02-02 11:11:00,
2013-02-02 06:22:00,13.0,1.0,-100.00,West,280,2.0,9.0,57,-99.99,,,-99.99,,2013-02-02 11:22:00,
2013-02-02 06:32:00,13.0,1.0,-100.00,WNW,290,6.0,11.0,58,-99.99,,,-99.99,,2013-02-02 11:32:00,
2013-02-02 06:42:00,13.0,1.0,-100.00,WNW,290,6.0,11.0,58,-99.99,,,-99.99,,2013-02-02 11:42:00,
2013-02-02 07:02:00,13.0,2.0,-100.00,NW,305,5.0,9.0,59,-99.99,,,-99.99,,2013-02-02 12:02:00,
2013-02-02 07:11:00,13.0,2.0,-100.00,West,280,4.0,10.0,60,-99.99,,,-99.99,,2013-02-02 12:11:00,
2013-02-02 07:22:00,13.0,2.0,-100.00,West,280,4.0,10.0,60,-99.99,,,-99.99,,2013-02-02 12:22:00,
2013-02-02 07:32:00,13.0,2.0,-100.00,WSW,250,3.0,8.0,61,-99.99,,,-99.99,,2013-02-02 12:32:00,
2013-02-02 07:42:00,13.0,2.0,-100.00,West,280,4.0,10.0,62,-99.99,,,-99.99,,2013-02-02 12:42:00,
2013-02-02 07:52:00,13.0,2.0,-100.00,West,280,4.0,10.0,62,-99.99,,,-99.99,,2013-02-02 12:52:00,
2013-02-02 08:03:00,12.0,2.0,-100.00,West,265,3.0,9.0,62,-99.99,,,-99.99,,2013-02-02 13:03:00,
2013-02-02 08:11:00,13.0,2.0,-100.00,NW,310,4.0,7.0,62,-99.99,,,-99.99,,2013-02-02 13:11:00,
2013-02-02 08:22:00,13.0,2.0,-100.00,NW,310,4.0,7.0,62,-99.99,,,-99.99,,2013-02-02 13:22:00,
2013-02-02 08:33:00,13.0,3.0,-100.00,WNW,290,3.0,6.0,62,-99.99,,,-99.99,,2013-02-02 13:33:00,
2013-02-02 08:42:00,13.0,3.0,-100.00,WSW,255,4.0,8.0,62,-99.99,,,-99.99,,2013-02-02 13:42:00,
2013-02-02 08:52:00,13.0,3.0,-100.00,WSW,255,4.0,8.0,62,-99.99,,,-99.99,,2013-02-02 13:52:00,
2013-02-02 09:03:00,14.0,3.0,-100.00,West,260,5.0,12.0,60,-99.99,,,-99.99,,2013-02-02 14:03:00,
2013-02-02 09:12:00,14.0,3.0,-100.00,WNW,285,4.0,10.0,60,-99.99,,,-99.99,,2013-02-02 14:12:00,
2013-02-02 09:22:00,14.0,3.0,-100.00,WNW,285,4.0,10.0,60,-99.99,,,-99.99,,2013-02-02 14:22:00,
2013-02-02 09:33:00,15.0,3.0,-100.00,West,260,3.0,8.0,58,-99.99,,,-99.99,,2013-02-02 14:33:00,
2013-02-02 09:42:00,16.0,3.0,-100.00,WNW,285,4.0,10.0,56,-99.99,,,-99.99,,2013-02-02 14:42:00,
2013-02-02 09:52:00,16.0,3.0,-100.00,WNW,285,4.0,10.0,56,-99.99,,,-99.99,,2013-02-02 14:52:00,
2013-02-02 10:03:00,16.0,3.0,-100.00,WSW,240,3.0,11.0,55,-99.99,,,-99.99,,2013-02-02 15:03:00,
2013-02-02 10:13:00,16.0,2.0,-100.00,SSW,210,6.0,10.0,53,-99.99,,,-99.99,,2013-02-02 15:13:00,
2013-02-02 10:22:00,16.0,2.0,-100.00,SSW,210,6.0,10.0,53,-99.99,,,-99.99,,2013-02-02 15:22:00,
2013-02-02 10:33:00,18.0,3.0,-100.00,WNW,285,3.0,7.0,51,-99.99,,,-99.99,,2013-02-02 15:33:00,
2013-02-02 10:42:00,19.0,3.0,-100.00,WSW,240,7.0,12.0,48,-99.99,,,-99.99,,2013-02-02 15:42:00,
2013-02-02 10:52:00,19.0,3.0,-100.00,WSW,240,7.0,12.0,48,-99.99,,,-99.99,,2013-02-02 15:52:00,
2013-02-02 11:03:00,20.0,3.0,-100.00,WSW,255,4.0,9.0,47,-99.99,,,-99.99,,2013-02-02 16:03:00,
2013-02-02 11:12:00,20.0,2.0,-100.00,SSW,200,6.0,10.0,45,-99.99,,,-99.99,,2013-02-02 16:12:00,
2013-02-02 11:23:00,20.0,2.0,-100.00,SSW,200,6.0,10.0,45,-99.99,,,-99.99,,2013-02-02 16:23:00,
2013-02-02 11:32:00,21.0,1.0,-100.00,WSW,245,10.0,16.0,42,-99.99,,,-99.99,,2013-02-02 16:32:00,
2013-02-02 11:42:00,22.0,2.0,-100.00,West,265,4.0,12.0,41,-99.99,,,-99.99,,2013-02-02 16:42:00,
2013-02-02 11:52:00,22.0,2.0,-100.00,WNW,285,6.0,13.0,40,-99.99,,,-99.99,,2013-02-02 16:52:00,
2013-02-02 12:03:00,22.0,2.0,-100.00,WNW,285,6.0,13.0,40,-99.99,,,-99.99,,2013-02-02 17:03:00,
2013-02-02 12:11:00,22.0,1.0,-100.00,WSW,240,6.0,13.0,40,-99.99,,,-99.99,,2013-02-02 17:11:00,
2013-02-02 12:23:00,22.0,1.0,-100.00,WSW,240,6.0,13.0,40,-99.99,,,-99.99,,2013-02-02 17:23:00,
2013-02-02 12:33:00,21.0,1.0,-100.00,West,260,6.0,13.0,40,-99.99,,,-99.99,,2013-02-02 17:33:00,
2013-02-02 12:42:00,22.0,2.0,-100.00,WSW,245,9.0,17.0,41,-99.99,,,-99.99,,2013-02-02 17:42:00,
2013-02-02 12:53:00,21.0,1.0,-100.00,West,275,4.0,12.0,40,-99.99,,,-99.99,,2013-02-02 17:53:00,
2013-02-02 13:03:00,21.0,1.0,-100.00,West,275,4.0,12.0,40,-99.99,,,-99.99,,2013-02-02 18:03:00,
2013-02-02 13:12:00,21.0,1.0,-100.00,WNW,290,6.0,13.0,40,-99.99,,,-99.99,,2013-02-02 18:12:00,
2013-02-02 13:22:00,21.0,1.0,-100.00,WNW,290,6.0,13.0,40,-99.99,,,-99.99,,2013-02-02 18:22:00,
2013-02-02 13:32:00,22.0,1.0,-100.00,WSW,250,7.0,14.0,39,-99.99,,,-99.99,,2013-02-02 18:32:00,
2013-02-02 13:42:00,23.0,1.0,-100.00,West,280,6.0,17.0,39,-99.99,,,-99.99,,2013-02-02 18:42:00,
2013-02-02 13:52:00,23.0,1.0,-100.00,West,280,6.0,17.0,39,-99.99,,,-99.99,,2013-02-02 18:52:00,
2013-02-02 14:12:00,22.0,1.0,-100.00,WSW,250,7.0,15.0,40,-99.99,,,-99.99,,2013-02-02 19:12:00,
2013-02-02 14:22:00,22.0,1.0,-100.00,WSW,250,7.0,15.0,40,-99.99,,,-99.99,,2013-02-02 19:22:00,
2013-02-02 14:32:00,22.0,2.0,-100.00,WSW,255,4.0,14.0,41,-99.99,,,-99.99,,2013-02-02 19:32:00,
2013-02-02 14:42:00,22.0,2.0,-100.00,WSW,245,7.0,14.0,42,-99.99,,,-99.99,,2013-02-02 19:42:00,
2013-02-02 14:52:00,22.0,2.0,-100.00,WSW,245,7.0,14.0,42,-99.99,,,-99.99,,2013-02-02 19:52:00,
2013-02-02 15:02:00,21.0,2.0,-100.00,WSW,245,9.0,18.0,42,-99.99,,,-99.99,,2013-02-02 20:02:00,
2013-02-02 15:12:00,21.0,2.0,-100.00,WSW,245,9.0,18.0,42,-99.99,,,-99.99,,2013-02-02 20:12:00,
2013-02-02 15:32:00,21.0,3.0,-100.00,West,270,4.0,11.0,45,-99.99,,,-99.99,,2013-02-02 20:32:00,
2013-02-02 15:42:00,21.0,3.0,-100.00,WNW,300,3.0,11.0,46,-99.99,,,-99.99,,2013-02-02 20:42:00,
2013-02-02 15:52:00,21.0,3.0,-100.00,WNW,300,3.0,11.0,46,-99.99,,,-99.99,,2013-02-02 20:52:00,
2013-02-02 16:02:00,20.0,4.0,-100.00,WSW,250,5.0,14.0,49,-99.99,,,-99.99,,2013-02-02 21:02:00,
2013-02-02 16:11:00,20.0,5.0,-100.00,WSW,250,4.0,13.0,51,-99.99,,,-99.99,,2013-02-02 21:11:00,
2013-02-02 16:22:00,20.0,5.0,-100.00,WSW,250,4.0,13.0,51,-99.99,,,-99.99,,2013-02-02 21:22:00,
2013-02-02 16:32:00,21.0,6.0,-100.00,West,275,4.0,9.0,51,-99.99,,,-99.99,,2013-02-02 21:32:00,
2013-02-02 16:42:00,20.0,6.0,-100.00,SW,235,5.0,12.0,53,-99.99,,,-99.99,,2013-02-02 21:42:00,
2013-02-02 16:52:00,20.0,6.0,-100.00,SW,235,5.0,12.0,53,-99.99,,,-99.99,,2013-02-02 21:52:00,
2013-02-02 17:03:00,20.0,6.0,-100.00,SW,235,6.0,16.0,55,-99.99,,,-99.99,,2013-02-02 22:03:00,
2013-02-02 17:12:00,19.0,8.0,-100.00,WSW,245,5.0,12.0,60,-99.99,,,-99.99,,2013-02-02 22:12:00,
2013-02-02 17:22:00,19.0,8.0,-100.00,WSW,245,5.0,12.0,60,-99.99,,,-99.99,,2013-02-02 22:22:00,
2013-02-02 17:32:00,19.0,9.0,-100.00,WSW,255,5.0,12.0,64,-99.99,,,-99.99,,2013-02-02 22:32:00,
2013-02-02 17:42:00,19.0,10.0,-100.00,West,265,4.0,9.0,66,-99.99,,,-99.99,,2013-02-02 22:42:00,
2013-02-02 17:52:00,19.0,11.0,-100.00,WSW,255,3.0,9.0,70,-99.99,,,-99.99,,2013-02-02 22:52:00,
2013-02-02 18:02:00,19.0,11.0,-100.00,WSW,255,3.0,9.0,70,-99.99,,,-99.99,,2013-02-02 23:02:00,
2013-02-02 18:11:00,18.0,11.0,-100.00,West,260,4.0,9.0,73,-99.99,,,-99.99,,2013-02-02 23:11:00,
2013-02-02 18:22:00,18.0,11.0,-100.00,West,260,4.0,9.0,73,-99.99,,,-99.99,,2013-02-02 23:22:00,
2013-02-02 18:32:00,18.0,12.0,-100.00,WSW,240,4.0,7.0,76,-99.99,,,-99.99,,2013-02-02 23:32:00,
2013-02-02 18:42:00,18.0,12.0,-100.00,WSW,240,3.0,9.0,77,-99.99,,,-99.99,,2013-02-02 23:42:00,
2013-02-02 18:52:00,18.0,12.0,-100.00,WSW,240,3.0,9.0,77,-99.99,,,-99.99,,2013-02-02 23:52:00,
2013-02-02 19:02:00,18.0,13.0,-100.00,WSW,250,4.0,9.0,79,-99.99,,,-99.99,,2013-02-03 00:02:00,
2013-02-02 19:11:00,18.0,13.0,-100.00,WSW,245,3.0,7.0,80,-99.99,,,-99.99,,2013-02-03 00:11:00,
2013-02-02 19:22:00,18.0,13.0,-100.00,WSW,245,3.0,7.0,80,-99.99,,,-99.99,,2013-02-03 00:22:00,
2013-02-02 19:32:00,18.0,13.0,-100.00,SW,215,1.0,6.0,80,-99.99,,,-99.99,,2013-02-03 00:32:00,
2013-02-02 19:42:00,18.0,13.0,-100.00,West,280,3.0,5.0,80,-99.99,,,-99.99,,2013-02-03 00:42:00,
2013-02-02 19:52:00,18.0,13.0,-100.00,West,280,3.0,5.0,80,-99.99,,,-99.99,,2013-02-03 00:52:00,
2013-02-02 20:02:00,18.0,13.0,-100.00,West,260,3.0,6.0,81,-99.99,,,-99.99,,2013-02-03 01:02:00,
2013-02-02 20:11:00,18.0,14.0,-100.00,West,260,2.0,4.0,82,-99.99,,,-99.99,,2013-02-03 01:11:00,
2013-02-02 20:21:00,18.0,14.0,-100.00,West,260,2.0,4.0,82,-99.99,,,-99.99,,2013-02-03 01:21:00,
2013-02-02 20:32:00,18.0,14.0,-100.00,WNW,290,1.0,4.0,82,-99.99,,,-99.99,,2013-02-03 01:32:00,
2013-02-02 20:42:00,18.0,14.0,-100.00,WSW,250,2.0,3.0,82,-99.99,,,-99.99,,2013-02-03 01:42:00,
2013-02-02 20:52:00,18.0,14.0,-100.00,WSW,250,2.0,3.0,82,-99.99,,,-99.99,,2013-02-03 01:52:00,
2013-02-02 21:01:00,18.0,14.0,-100.00,West,260,3.0,5.0,83,-99.99,,,-99.99,,2013-02-03 02:01:00,
2013-02-02 21:11:00,19.0,14.0,-100.00,West,270,1.0,5.0,83,-99.99,,,-99.99,,2013-02-03 02:11:00,
2013-02-02 21:21:00,19.0,14.0,-100.00,West,270,1.0,5.0,83,-99.99,,,-99.99,,2013-02-03 02:21:00,
2013-02-02 21:32:00,19.0,15.0,-100.00,West,265,2.0,4.0,83,-99.99,,,-99.99,,2013-02-03 02:32:00,
2013-02-02 21:42:00,19.0,14.0,-100.00,WNW,285,2.0,5.0,83,-99.99,,,-99.99,,2013-02-03 02:42:00,
2013-02-02 21:52:00,19.0,14.0,-100.00,WNW,285,2.0,5.0,83,-99.99,,,-99.99,,2013-02-03 02:52:00,
2013-02-02 22:02:00,19.0,15.0,-100.00,West,270,2.0,5.0,83,-99.99,,,-99.99,,2013-02-03 03:02:00,
2013-02-02 22:11:00,19.0,15.0,-100.00,West,265,2.0,5.0,83,-99.99,,,-99.99,,2013-02-03 03:11:00,
2013-02-02 22:22:00,19.0,15.0,-100.00,West,265,2.0,5.0,83,-99.99,,,-99.99,,2013-02-03 03:22:00,
2013-02-02 22:32:00,19.0,15.0,-100.00,West,270,1.0,4.0,83,-99.99,,,-99.99,,2013-02-03 03:32:00,
2013-02-02 22:42:00,19.0,15.0,-100.00,West,265,3.0,5.0,83,-99.99,,,-99.99,,2013-02-03 03:42:00,
2013-02-02 22:51:00,19.0,15.0,-100.00,West,265,3.0,5.0,83,-99.99,,,-99.99,,2013-02-03 03:51:00,
2013-02-02 23:01:00,19.0,15.0,-100.00,SW,230,1.0,3.0,83,-99.99,,,-99.99,,2013-02-03 04:01:00,
2013-02-02 23:11:00,19.0,15.0,-100.00,SW,220,1.0,3.0,83,-99.99,,,-99.99,,2013-02-03 04:11:00,
2013-02-02 23:22:00,19.0,15.0,-100.00,SW,220,1.0,3.0,83,-99.99,,,-99.99,,2013-02-03 04:22:00,
2013-02-02 23:32:00,19.0,15.0,-100.00,WSW,255,2.0,4.0,83,-99.99,,,-99.99,,2013-02-03 04:32:00,
2013-02-02 23:42:00,19.0,15.0,-100.00,SW,225,2.0,4.0,83,-99.99,,,-99.99,,2013-02-03 04:42:00,
2013-02-02 23:52:00,19.0,15.0,-100.00,SW,225,2.0,4.0,83,-99.99,,,-99.99,,2013-02-03 04:52:00,